This is the latest recevied weather packets stored in our database for station/object KG4LKY-5. If no packets are shown the sender has not sent any weather packets the latest 10 day(s).
| Time | Temp. | Humidity | Pressure | Rain* | Wind** | Luminosity | Snow |
|---|---|---|---|---|---|---|---|
| 1778049826 | 16.67° C | 77% | 1007.8 hPa | 0.51 mm | - | - | - |
| 1778049525 | 17.22° C | 80% | 1007.7 hPa | 0.51 mm | - | - | - |
| 1778049225 | 17.78° C | 74% | 1007.9 hPa | 0.51 mm | - | - | - |
| 1778048925 | 17.78° C | 74% | 1008 hPa | 0.51 mm | - | - | - |
| 1778048625 | 17.78° C | 74% | 1008.1 hPa | 0.51 mm | - | - | - |
| 1778048324 | 17.78° C | 72% | 1008.1 hPa | 0.51 mm | - | - | - |
| 1778048024 | 17.22° C | 75% | 1008.2 hPa | 0.51 mm | - | - | - |
| 1778047423 | 17.22° C | 76% | 1008.5 hPa | 0.51 mm | - | - | - |
| 1778047122 | 16.67° C | 75% | 1008.5 hPa | 0.51 mm | - | - | - |
| 1778046822 | 17.22° C | 75% | 1008.6 hPa | 0.51 mm | - | - | - |
| 1778046521 | 16.67° C | 80% | 1008.7 hPa | 0.51 mm | - | - | - |
| 1778046221 | 16.11° C | 83% | 1008.7 hPa | 0.51 mm | - | - | - |
| 1778045921 | 16.11° C | 85% | 1008.9 hPa | 0.51 mm | - | - | - |
| 1778045620 | 15.56° C | 86% | 1008.9 hPa | 0.51 mm | - | - | - |
| 1778045320 | 16.67° C | 88% | 1009 hPa | 0.51 mm | - | - | - |
| 1778045020 | 16.11° C | 88% | 1009 hPa | 0.51 mm | - | - | - |
| 1778044719 | 15.56° C | 91% | 1009 hPa | 0.51 mm | - | - | - |
| 1778044419 | 16.11° C | 86% | 1009 hPa | 0.51 mm | - | - | - |
| 1778044118 | 15° C | 90% | 1009.1 hPa | 0.51 mm | - | - | - |
| 1778043818 | 15.56° C | 90% | 1009.2 hPa | 0.51 mm | - | - | - |
| 1778043518 | 15.56° C | 89% | 1009.2 hPa | 0.51 mm | - | - | - |
| 1778043217 | 15.56° C | 85% | 1009.2 hPa | 0.51 mm | - | - | - |
| 1778042917 | 16.11° C | 87% | 1009.2 hPa | 0.51 mm | - | - | - |
| 1778042617 | 15.56° C | 90% | 1009.2 hPa | 0.51 mm | - | - | - |
| 1778042316 | 15° C | 89% | 1009.4 hPa | 0.51 mm | - | - | - |
* Rain since midnight (hover to see other rain measurements)
** Current wind speed in m/s (hover to see current wind gust speed)